Regional Weather Roundup
Issued by NWS

Home | Current Version | Previous Version | Text Only | Print | Product List | Glossary Off
Versions: 1 2 3 4 5 6 7 8 9 10 11 12 13 14 15 16 17 18 19 20 21 22 23 24 25 26 27 28 29 30 31 32 33 34 35 36 37 38 39 40 41 42 43 44 45 46 47 48 49 50

000
ASUS43 KDMX 230401
RWRIA

WEATHER ROUNDUP FOR IOWA
NATIONAL WEATHER SERVICE DES MOINES IA
1100 PM CDT WED MAR 22 2017

NOTE: "FAIR" INDICATES FEW OR NO CLOUDS BELOW 12,000 FEET WITH NO
SIGNIFICANT WEATHER AND/OR OBSTRUCTIONS TO VISIBILITY.

* - THESE STATIONS ARE NOT NWS STATIONS...THUS NOT UNDER NWS
QUALITY CONTROL.  THEY ALSO DO NOT REPORT WEATHER SUCH
AS PRECIPITATION OR FOG.

IAZ001>003-012>014-020>022-031>034-043>046-230500-
   NORTHWEST IOWA

CITY           SKY/WX    TMP DP  RH WIND       PRES   REMARKS
LE MARS *      CLOUDY    41  27  56 SE15G25   30.15F
SHELDON *      CLOUDY    37  28  70 SE20      30.14F WCI  27
SIOUX CITY     CLOUDY    42  26  53 SE17      30.14F
SPENCER        CLOUDY    38  23  55 SE13      30.18F WCI  30
STORM LAKE *   CLOUDY    39  25  56 SE18G28   30.18S WCI  30
$$

IAZ055>058-069>071-079>083-090>094-230500-
   SOUTHWEST IOWA

CITY           SKY/WX    TMP DP  RH WIND       PRES   REMARKS
CLARINDA *     CLOUDY    45  23  42 SE13G20   30.22F
CRESTON *      CLOUDY    41  19  42 SE18G26   30.23F
LAMONI         CLOUDY    43  15  32 SE13G23   30.24F
RED OAK *      CLOUDY    45  23  42 SE16      30.20S
$$

IAZ047>049-059>061-072>074-084-230500-
   CENTRAL IOWA

CITY           SKY/WX    TMP DP  RH WIND       PRES   REMARKS
AMES           CLOUDY    41  22  46 SE14      30.26F
ANKENY *       CLOUDY    41  19  42 SE13G20   30.27F
CHARITON *     CLOUDY    41  16  36 SE15      30.25F
GRINNELL*      CLOUDY    38  21  50 SE16      30.31F WCI  29
MARSHALLTOWN   CLOUDY    39  21  48 SE17G26   30.29S WCI  30
NEWTON *       CLOUDY    39  19  45 SE18      30.28F WCI  30
PELLA *        MOCLDY    39  21  48 SE13G18   30.30F WCI  32
PERRY *        CLOUDY    41  19  41 SE17      30.23F
$$

IAZ004>006-015-016-023>025-035-036-230500-
   NORTH CENTRAL IOWA

CITY           SKY/WX    TMP DP  RH WIND       PRES   REMARKS
ESTHERVILLE    CLOUDY    35  25  66 SE22      30.18F WCI  23
FORT DODGE *   CLOUDY    39  19  45 SE13      30.24F WCI  32
MASON CITY     CLOUDY    35  20  54 SE16G23   30.29S WCI  25
IOWA FALLS *   CLOUDY    39  22  49 SE14      30.29F WCI  31
$$

IAZ007>011-017>019-026>030-037>042-050>054-066-230500-
   NORTHEAST IOWA

CITY           SKY/WX    TMP DP  RH WIND       PRES   REMARKS
CEDAR RAPIDS   PTCLDY    36  23  59 SE17G24   30.33F WCI  26
CHARLES CITY * CLOUDY    37  19  48 SE15      30.32R WCI  28
CLINTON *      CLOUDY    36  23  59 SE16      30.41F WCI  26
DUBUQUE        CLOUDY    36  22  56 SE12      30.36F WCI  28
$$

IAZ064-065-067-068-078-230500-
   EAST CENTRAL IOWA

CITY           SKY/WX    TMP DP  RH WIND       PRES   REMARKS
DAVENPORT      PTCLDY    36  19  50 SE17      30.39F WCI  26
IOWA CITY      CLOUDY    38  24  57 SE12      30.38S WCI  30
MUSCATINE *    CLOUDY    39  21  48 SE12G18   30.39S WCI  32
QUAD CITIES    CLOUDY    37  20  50 SE13      30.40F WCI  29
$$

IAZ062-063-075>077-085>089-095>099-230500-
   SOUTHEAST IOWA

CITY           SKY/WX    TMP DP  RH WIND       PRES   REMARKS
BURLINGTON     CLOUDY    39  20  46 E15G21    30.37F WCI  31
OTTUMWA        PTCLDY    39  16  39 SE14      30.31F WCI  31
$$

ABBREVIATIONS USED IN REMARKS
   TC - TEMPERATURES IN CELSIUS
  WCI - WIND CHILL INDEX
   HX - HEAT INDEX
  VSB - VISIBILITY
$$




USA.gov is the U.S. government's official web portal to all federal, state and local government web resources and services.